Flag for Argentina Weather past 2 weeks in Buenos Aires, Argentina

Now
75 °F

Clear.


Feels Like: 78 °F
Forecast: N/A
Wind: 9 mph from Northwest

Location: Buenos Aires Airport

Current Time: Apr 1, 2015 at 7:46:20 PM

Latest Report: Apr 1, 2015 at 7:00 PM


Visibility: 10 mi

Pressure: 29.92 "Hg

Humidity: 57%

Dew point: 59 °F

Location of Buenos AiresLocation

Historic Weather in Buenos Aires — Graph

°F

Buenos Aires temperature yesterday

Maximum temperature yesterday: 79 °F (at 4:00 PM)
Minimum temperature yesterday: 61 °F (at 7:00 AM)
Average temperature yesterday: 69 °F

Past Weeks' High & Low Weather Summary

 TemperatureHumidityPressure
High90 °F (Mar 20, 4:00 PM)89% (Mar 18, 2:00 AM)30.21 "Hg (Mar 18, 2:00 AM)
Low55 °F (Mar 21, 5:00 AM)31% (Mar 20, 5:00 PM)29.77 "Hg (Mar 20, 3:00 PM)
Average70 °F63%30.05 "Hg
* Reported Mar 17 6:00 PM — Apr 1 6:00 PM, Buenos Aires, Weather by CustomWeather, © 2015

Note: Actual official high and low records may vary slightly from our data, if they occured in-between our weather recording intervals... More about our weather records

Advertising

Buenos Aires weather history for previous 24 hours

 ConditionsComfort  
Time TempWeatherWind HumidityBarometerVisibility
6:00 PM
Wed, Apr 1
77 °FClear.10 mph47%29.92 "Hg10 mi
5:00 PM79 °FSunny.12 mph42%29.92 "Hg10 mi
4:00 PM79 °FSunny.10 mph45%29.95 "Hg10 mi
3:00 PM79 °FSunny.13 mph42%29.95 "Hg10 mi
2:00 PM77 °FSunny.13 mph51%29.98 "Hg10 mi
1:00 PM75 °FSunny.12 mph61%30.01 "Hg10 mi
12:00 PM72 °FSunny.9 mph69%30.01 "Hg10 mi
11:00 AM70 °FSunny.10 mph73%30.04 "Hg10 mi
10:00 AM66 °FPassing clouds.9 mph83%30.04 "HgN/A
9:00 AM64 °FPassing clouds.10 mph83%30.04 "HgN/A
8:00 AM63 °FPassing clouds.12 mph83%30.04 "HgN/A
7:00 AM64 °FPassing clouds.10 mph88%30.01 "HgN/A
6:00 AM66 °FClear.7 mph78%30.01 "Hg10 mi
5:00 AM66 °FClear.7 mph78%30.01 "Hg10 mi
4:00 AM66 °FClear.8 mph73%30.04 "Hg10 mi
3:00 AM68 °FClear.8 mph69%30.04 "Hg10 mi
2:00 AM68 °FPassing clouds.7 mph69%30.04 "HgN/A
1:00 AM68 °FClear.7 mph64%30.04 "Hg10 mi
12:00 AM68 °FClear.6 mph64%30.04 "Hg10 mi
11:00 PM
Tue, Mar 31
68 °FPassing clouds.7 mph64%30.04 "HgN/A
10:00 PM70 °FPassing clouds.9 mph64%30.04 "HgN/A
9:00 PM70 °FPassing clouds.12 mph73%30.04 "HgN/A
8:00 PM70 °FPassing clouds.6 mph64%30.01 "HgN/A
7:00 PM73 °FClear.12 mph57%29.98 "Hg10 mi
Weather by CustomWeather, © 2015

See weather overviewHow to use our weather pages